Flag for Luxembourg Weather past 2 weeks in Esch-sur-Alzette, Luxembourg

Now
77 °F

Warm.


Feels Like: 79 °F
Forecast: 67 / 89 °F
Wind: 6 mph from East

Location: Luxembourg Airport

Current Time: Jul 4, 2015 at 4:35:55 AM

Latest Report: Jul 4, 2015 at 3:50 AM


Visibility: N/A

Pressure: 30.12 "Hg

Humidity: 65%

Dew point: 64 °F

Location of Esch-sur-AlzetteLocation

Historic Weather in Esch-sur-Alzette — Graph

°F

Esch-sur-Alzette temperature yesterday

Maximum temperature yesterday: 93 °F (at 3:20 PM)
Minimum temperature yesterday: 70 °F (at 4:20 AM)
Average temperature yesterday: 82 °F

Past Weeks' High & Low Weather Summary

 TemperatureHumidityPressure
High95 °F (Jul 2, 3:20 PM)100% (Jun 20, 6:50 AM)30.27 "Hg (Jun 20, 6:50 AM)
Low45 °F (Jun 19, 3:50 AM)24% (Jul 3, 3:20 PM)29.71 "Hg (Jun 22, 9:20 PM)
Average66 °F63%30.11 "Hg
* Reported Jun 19 3:20 AM — Jul 4 3:20 AM, Esch-sur-Alzette, Weather by CustomWeather, © 2015

Note: Actual official high and low records may vary slightly from our data, if they occured in-between our weather recording intervals... More about our weather records

Advertising

Esch-sur-Alzette weather history for previous 24 hours

 ConditionsComfort  
Time TempWeatherWind HumidityBarometerVisibility
3:20 AM
Sat, Jul 4
77 °FWarm.3 mph65%30.12 "HgN/A
2:50 AM77 °FWarm.5 mph65%30.12 "HgN/A
2:20 AM77 °FClear.6 mph65%30.15 "Hg10 mi
1:50 AM77 °FClear.8 mph65%30.15 "Hg10 mi
1:20 AM79 °FClear.7 mph61%30.15 "Hg10 mi
12:50 AM81 °FClear.8 mph58%30.15 "Hg10 mi
12:20 AM81 °FClear.8 mph58%30.15 "Hg10 mi
11:50 PM
Fri, Jul 3
81 °FClear.7 mph58%30.15 "Hg10 mi
11:20 PM84 °FClear.8 mph51%30.15 "Hg10 mi
10:50 PM84 °FClear.9 mph51%30.15 "Hg10 mi
10:20 PM86 °FSunny.8 mph46%30.15 "Hg10 mi
9:50 PM88 °FSunny.7 mph40%30.15 "Hg10 mi
9:20 PM90 °FSunny.7 mph36%30.15 "Hg10 mi
8:50 PM90 °FPassing clouds.6 mph33%30.15 "HgN/A
8:20 PM91 °FSunny.2 mph32%30.18 "Hg10 mi
7:50 PM91 °FSunny.2 mph32%30.18 "Hg10 mi
7:20 PM91 °FSunny.3 mph30%30.18 "Hg10 mi
6:50 PM93 °FSunny.3 mph28%30.18 "Hg10 mi
6:20 PM93 °FSunny.2 mph26%30.18 "Hg10 mi
5:50 PM93 °FPassing clouds.7 mph26%30.18 "HgN/A
5:20 PM93 °FSunny.7 mph26%30.18 "Hg10 mi
4:50 PM93 °FPassing clouds.7 mph28%30.21 "HgN/A
4:20 PM93 °FSunny.5 mph30%30.21 "Hg10 mi
3:50 PM91 °FSunny.6 mph30%30.21 "Hg10 mi
3:20 PM93 °FSunny.5 mph24%30.21 "Hg10 mi
2:50 PM91 °FSunny.5 mph32%30.24 "Hg10 mi
2:20 PM90 °FSunny.3 mph38%30.24 "Hg10 mi
1:50 PM90 °FPassing clouds.5 mph41%30.24 "HgN/A
1:20 PM90 °FSunny.3 mph41%30.24 "Hg10 mi
12:50 PM86 °FSunny.2 mph49%30.24 "Hg10 mi
12:20 PM86 °FSunny.3 mph52%30.24 "Hg10 mi
11:50 AM84 °FSunny.3 mph55%30.27 "Hg10 mi
11:20 AM82 °FPassing clouds.5 mph55%30.27 "HgN/A
10:50 AM81 °FPassing clouds.5 mph58%30.27 "HgN/A
10:20 AM79 °FPassing clouds.6 mph61%30.27 "HgN/A
9:50 AM79 °FPassing clouds.7 mph61%30.27 "HgN/A
9:20 AM77 °FPassing clouds.9 mph65%30.27 "HgN/A
8:50 AM75 °FPassing clouds.9 mph65%30.27 "HgN/A
8:20 AM73 °FSunny.9 mph69%30.27 "Hg10 mi
7:50 AM73 °FPassing clouds.8 mph69%30.27 "HgN/A
7:20 AM72 °FPassing clouds.8 mph73%30.24 "HgN/A
6:50 AM70 °FPassing clouds.9 mph78%30.24 "HgN/A
6:20 AM70 °FClear.8 mph78%30.24 "Hg10 mi
5:50 AM70 °FClear.9 mph83%30.24 "Hg10 mi
5:20 AM70 °FPassing clouds.7 mph83%30.24 "HgN/A
4:50 AM70 °FClear.9 mph83%30.21 "Hg10 mi
4:20 AM70 °FMild.9 mph83%30.21 "HgN/A
Weather by CustomWeather, © 2015

See weather overviewHow to use our weather pages